FENGYUN 1C DEB

Satellite information

Favourite Embed

Satellite Type and Status

DEBRISIN ORBIT

Key statistics

Satellite FENGYUN 1C DEB at a glance.

Uptime

9619

Days in orbit

Revolutions

≈ 14.5

Per day

Orbit

SSO

Sun Synchronous Orbit

Inclination

97.4

Latest

Satellite identification and parameters

Extended collection of information and parameters for FENGYUN 1C DEB.

Object identification

Identified? True

Debris? True

Object name: FENGYUN 1C DEB

International designator: 1999-025TZ

Object number (NORAD): 30168

Object ID (CCSDS): 30168

Country: PEOPLES REPUBLIC OF CHINA (PRC)

Current information (Y/N): Y

RCS size: SMALL

Orbital parameters

Period: 99.262 minutes

Inclination: 97.3971 deg

SMA: 7101.459 km

Apoapsis: 797.169 km

Periapsis: 649.479 km

RAAN: 334.9802 deg

Eccentricy: 0.01039851

Argument of periapsis: 94.8039 deg

Mean anomaly: 266.5041 deg

Mean motion: 14.50712602 rev/day

Mean motion (dot): 0.00007928 rev/day2

B* drag term: 0.0018883762 1/REarth

Two-line elements (TLE)

Creation date: Sept. 8, 2025, 9:49 a.m.

Reference frame: TEME

Reference center: EARTH

Epoch: Sept. 8, 2025, 4:53 a.m. UTC

TLE line 0: 0 FENGYUN 1C DEB

TLE line 1: 1 30168U 99025TZ 25251.20379741 .00007928 00000-0 18884-2 0 9998

TLE line 2: 2 30168 97.3971 334.9802 0103985 94.8039 266.5041 14.50712602969257

Live tracking on map

Real-time ground track for satellite FENGYUN 1C DEB.

In-orbit conjunctions

A list of the most updated potential collisions computed for object FENGYUN 1C DEB.

Target Orbit TCA Probability of collision Miss distance Type
IRIDIUM 920 LEO 2024-12-31 23:24:43 0.0005348044 177.0 (m) PAYLOAD
CZ-6A DEB SSO 2024-11-16 11:53:34 0.0001266222 622.0 (m) DEBRIS
CZ-6A DEB LEO 2024-11-09 05:07:25 0.0001028075 189.0 (m) DEBRIS

Associated space launch

Chinese polar orbiting meteorological satellite

FENGYUN 1C DEB was lifted into orbit during the mission ‘Long March 4B | Feng Yun 1C’, on board a Long March 4B space rocket.

The launch took place on May 10, 1999, 1:33 a.m. from Launch Complex 7.

For more information about the launch, click the button.

Launch to space Long March 4B | Feng Yun 1C
Long March 4B | Feng Yun 1C

Agency: N/A

Status: Launch Successful

Launch date: May 10, 1999, 1:33 a.m. UTC

Rocket: Long March 4B

Launch pad: Launch Complex 7

Location: Taiyuan Satellite Launch Center, People's Republic of China

...

Latest news about this satellite

There are no fresh news available about this satellite. Check back as we update our databases every day.


Newsletter sign-up

Weekly statistics, charts and insights to help you stay on top of the space industry.